TITAN 3C TRANSTAGE DEB, 1959

Orbit data source: Space-Track

TITAN 3C TRANSTAGE DEB, 1959 is space debris in LEO originally from a launch on Fri, 15 Oct 1965 UTC launched from the Air Force Eastern Test Range (AFETR). Debris objects in space refer to the collection of defunct objects orbiting the Earth. Examples of debris include non-operational satellites, rocket bodies, and fragments generated from explosions, collisions, or faulty payload assembly.

Loading next visibility...
Identifier
1959, 1965-082GU
Orbit
LEO
Country
Flag of USUS
Related business
Manufacturer
Unknown
Mission
Spacecraft
Bus & Motor
Unknown
Mass
Unknown
Launch date (UTC)
1965-10-15 (60 years ago)
Launch vehicle
Unknown
Launch site
Air Force Eastern Test Range (AFETR)
Object type
Payload
Rocket body
Debris
Shape & HBR
Unknown shape, 0.2 m
Radar Cross Section
Small (<0.1 m²)

Expand to show TLE details & history
Last TLE update: 16 hours ago

TLE from 16 hours ago
0 TITAN 3C TRANSTAGE DEB
1 01959U 65082GU  26094.99876613  .00000964  00000-0  18705-3 0  9998
2 01959  31.7899  83.1235 0062321 294.5841  64.8313 14.58974577203065
Epoch: 2026-04-04T23:58Z
TLE epoch observation values (Epoch: 2026-04-04T23:58:13.393Z)
Latitude
0.00001°
Longitude
-109.74279°
Altitude
676.586 km
Speed
7.531 km/s
True Right ascension
05h 32m 29s
True Declination
0° 00' 00"
Sunlit
Object was in daylight at epoch
Visualization orbit readout
Latitude
Unknown
Longitude
Unknown
Altitude
Unknown
Speed
Unknown
Apparent Right ascension
Unknown
Apparent Declination
Unknown
Sunlit
N/A
Visualization observer readout
Local Sidereal Time
22:20:06
Azimuth
Unknown
Elevation
Unknown
Doppler factor
Unknown
Orbital elements
Apogee altitude
744.239 km
Perigee altitude
656.014 km
Semi-major axis
7,078.264 km
Eccentricity
0.00623
Inclination
31.7899°
RAAN
83.1235°
Arg. of periapsis
294.5841°
True anomaly
65.47978°
Mean anomaly
64.8313°
Eccentric anomaly
65.15533°
Mean motion
3.64463 °/min
Orbital period
98.78 mins
BSTAR
0.00018705

Documentation

Showing up to 5 results
|